Change the Weather History Date:

Saturday, July 6, 2013

  Actual Average Record
Temperature  
Mean Temperature 77 °F -  
Max Temperature 90 °F 80 °F 95 °F (1988)
Min Temperature 64 °F 54 °F 37 °F (1965)
Cooling Degree Days 12    
Growing Degree Days 27 (Base 50)    
Moisture  
Dew Point 60 °F    
Average Humidity 58    
Maximum Humidity 87    
Minimum Humidity 35    
Precipitation  
Precipitation 0.00 in - - ()
Sea Level Pressure  
Sea Level Pressure 29.94 in    
Wind  
Wind Speed 6 mph (South)    
Max Wind Speed 13 mph    
Max Gust Speed 20 mph    
Visibility 10 miles    
Events      
Averages and records for this station are not official NWS values.
T = Trace of Precipitation, MM = Missing Value Source: NWS Daily Summary

Daily Weather History Graph

Daily Weather History Graph

Search for Another Location

Airport or City:

Trip Planner

Search our weather history database for the weather conditions in past years. The results will help you decide how hot, cold, wet, or windy it might be!

Date:

Astronomy

Jul. 06, 2013 Rise Set
Actual Time 5:09 AM CDT 8:44 PM CDT
Civil Twilight 4:32 AM CDT 9:22 PM CDT
Nautical Twilight 3:41 AM CDT 10:11 PM CDT
Astronomical Twilight 2:35 AM CDT 11:18 PM CDT
Moon 3:58 AM CDT (7/6) 7:22 PM CDT (7/6)
Length of Visible Light 16h 49m
Length of Day
15h 34m
Waning Crescent, 2% of the Moon is Illuminated
Jul 6
Waning Crescent
Jul 8
New
Jul 15
First Quarter
Jul 22
Full
Jul 29
Last Quarter

Hourly Weather History & Observations

Time (CDT) Temp. Heat Index Dew Point Humidity Pressure Visibility Wind Dir Wind Speed Gust Speed Precip Events Conditions
12:54 AM 68.0 °F - 59.0 °F 73% 29.95 in 10.0 mi SSE 4.6 mph - N/A   Clear
1:54 AM 68.0 °F - 59.0 °F 73% 29.95 in 10.0 mi SSE 5.8 mph - N/A   Partly Cloudy
2:54 AM 68.0 °F - 60.1 °F 76% 29.96 in 10.0 mi South 4.6 mph - N/A   Clear
3:54 AM 66.9 °F - 60.1 °F 79% 29.95 in 10.0 mi South 4.6 mph - N/A   Clear
4:54 AM 64.0 °F - 59.0 °F 84% 29.96 in 10.0 mi SE 3.5 mph - N/A   Clear
5:54 AM 64.0 °F - 60.1 °F 87% 29.96 in 10.0 mi SSE 3.5 mph - N/A   Clear
6:54 AM 69.1 °F - 61.0 °F 75% 29.96 in 10.0 mi SSE 4.6 mph - N/A   Clear
7:54 AM 73.0 °F - 62.1 °F 68% 29.97 in 10.0 mi South 5.8 mph - N/A   Clear
8:54 AM 77.0 °F - 63.0 °F 62% 29.96 in 10.0 mi SW 5.8 mph - N/A   Clear
9:54 AM 81.0 °F 81.7 °F 61.0 °F 50% 29.95 in 10.0 mi West 11.5 mph 18.4 mph N/A   Clear
10:54 AM 84.0 °F 84.4 °F 61.0 °F 46% 29.96 in 10.0 mi SW 9.2 mph - N/A   Clear
11:54 AM 87.1 °F 86.5 °F 59.0 °F 39% 29.95 in 10.0 mi South 8.1 mph - N/A   Clear
12:54 PM 88.0 °F 87.1 °F 59.0 °F 37% 29.94 in 10.0 mi South 12.7 mph 16.1 mph N/A   Clear
1:54 PM 89.1 °F 88.2 °F 59.0 °F 36% 29.94 in 10.0 mi South 12.7 mph 19.6 mph N/A   Clear
2:54 PM 89.1 °F 88.8 °F 60.1 °F 38% 29.93 in 10.0 mi SSW 9.2 mph 17.3 mph N/A   Clear
3:54 PM 90.0 °F 89.1 °F 59.0 °F 35% 29.92 in 10.0 mi South 12.7 mph 17.3 mph N/A   Clear
4:54 PM 89.1 °F 88.0 °F 57.9 °F 35% 29.91 in 10.0 mi SSW 9.2 mph - N/A   Clear
5:54 PM 87.1 °F 86.5 °F 59.0 °F 39% 29.90 in 10.0 mi SSW 10.4 mph - N/A   Clear
6:54 PM 86.0 °F 85.4 °F 59.0 °F 40% 29.90 in 10.0 mi South 8.1 mph - N/A   Clear
7:54 PM 81.0 °F 81.9 °F 62.1 °F 52% 29.90 in 10.0 mi South 6.9 mph - N/A   Clear
8:54 PM 78.1 °F - 63.0 °F 60% 29.91 in 10.0 mi South 5.8 mph - N/A   Clear
9:54 PM 75.9 °F - 63.0 °F 64% 29.94 in 10.0 mi South 4.6 mph - N/A   Scattered Clouds
10:54 PM 73.0 °F - 63.0 °F 71% 29.93 in 10.0 mi SE 5.8 mph - N/A   Clear
11:54 PM 72.0 °F - 63.0 °F 73% 29.92 in 10.0 mi South 3.5 mph - N/A   Partly Cloudy